Regional Weather Roundup
Issued by NWS Cleveland, OH

Home | Current Version | Previous Version | Graphics & Text | Print | Product List | Glossary On
Versions: 1 2 3 4 5 6 7 8 9 10 11 12 13 14 15 16 17 18 19 20 21 22 23 24 25 26 27 28 29 30 31 32 33 34 35 36 37 38 39 40 41 42 43 44 45 46 47 48 49 50
000
ASUS41 KCLE 240210
RWRCLE
OHIO REGIONAL WEATHER ROUNDUP
NATIONAL WEATHER SERVICE WILMINGTON, OH
1000 PM EDT THU OCT 23 2014

NOTE: "FAIR" INDICATES FEW OR NO CLOUDS BELOW 12,000 FEET WITH NO
SIGNIFICANT WEATHER AND/OR OBSTRUCTIONS TO VISIBILITY.

OHZ001>008-015>018-024>027-034-035-043-044-240300-
   NORTHWEST OHIO

CITY           SKY/WX    TMP DP  RH WIND       PRES   REMARKS
DEFIANCE       CLOUDY    43  38  82 CALM      30.13R
FINDLAY        CLOUDY    42  39  89 CALM      30.12S
TOLEDO EXPRESS MOCLDY    40  37  89 CALM      30.11F
TOLEDO METCALF PTCLDY    44  37  76 CALM      30.12F
LIMA           CLOUDY    44  38  79 S3        30.12S
$$

OHZ009>014-019>023-028>033-038-089-240300-
   NORTHEAST OHIO

CITY           SKY/WX    TMP DP  RH WIND       PRES   REMARKS
CLE-HOPKINS    PTCLDY    42  39  89 S5        30.13F
CLE-LAKEFRONT  CLEAR     47  41  80 S5        30.11S
CUY CO. ARPT   CLEAR     46  45  93 SW6       30.12R
LORAIN-ELYRIA  CLEAR     39  37  92 W3        30.12F
ASHTABULA      CLEAR     45  43  93 W5        30.11R
AKRON-CANTON   CLEAR     44  39  82 CALM      30.12R
WOOSTER        CLEAR     40  36  86 CALM      30.11F
MANSFIELD      CLEAR     41  40  96 CALM      30.12S
YOUNGSTOWN     PTCLDY    45  42  89 W8        30.09F
$$

OHZ042-051>053-060>062-070>072-077>081-240300-
  SOUTHWEST OHIO

CITY           SKY/WX    TMP DP  RH WIND       PRES   REMARKS
CINC-COVINGTON MOCLDY    45  40  82 E3        30.13F
CINC-LUNKEN    PTCLDY    42  41  96 CALM      30.15F
HAMILTON       PTCLDY    39  37  92 CALM      30.14F
DAYTON         PTCLDY    49  40  71 S3        30.13F
WRIGHT-PAT AFB PTCLDY    44  40  85 CALM      30.12F
DAYTON GENERAL CLEAR     47  40  76 CALM      30.12F
WILMINGTON     CLEAR     44  38  79 CALM      30.13F
$$

OHZ036-037-039>041-045>050-054>059-063>069-073>076-082>088-240300-
  CENTRAL AND SOUTHEAST OHIO

CITY           SKY/WX    TMP DP  RH WIND       PRES   REMARKS
COLUMBUS       PTCLDY    47  40  76 CALM      30.12F
OSU AIRPORT    MOCLDY    45  40  82 W5        30.13S
BOLTON FIELD   MOCLDY    40  39  96 CALM      30.14R
RICKENBACK AFB PTCLDY    44  40  85 CALM      30.13S
NEWARK         CLEAR     40  37  89 CALM      30.12S
MARION         MOCLDY    41  37  86 CALM      30.12F FOG
LANCASTER      PTCLDY    38  35  89 CALM      30.13S
ZANESVILLE     CLEAR     45  39  79 W3        30.11F
NEW PHILLY     CLEAR     42  40  92 CALM      30.13R
$$



USA.gov is the U.S. government's official web portal to all federal, state and local government web resources and services.